GEESAT-6 04

Last updated on Sat Oct 25 2025 00:02:05 GMT+0000 (Coordinated Universal Time)

1 65716U 25214E 25297.69251060 .00003873 00000+0 45722-3 0 9996 2 65716 49.9864 320.5655 0011253 61.1738 299.0329 14.86621136 4535
UTC large
Height (km)
Speed (km/s)
/
Latitude / Longitude
Inclination (degrees)
Orbital Period (minutes)
Azimuth
Elevation
Range (km)
Doppler Factor

Next 0 passes for location: London (51.5072 / 0.1276)

Sorry there are no passes over London.
GEESAT-6 04